[[{"header":{"parameterUnit":"m.s-1","parameterCategory":1,"la1":30.2991,"la2":30.254,"lo1":-89.0895,"lo2":-89.0444,"dy":0.0017,"dx":0.0017,"nx":28,"ny":28,"refTime":"2023-08-24T21:00:00:Z","depth":0,"parameterNumber":2,"parameterNumberName":"U-component_of_WINDS"},"data":[0,0,0,0,0,0,0,0,0,0,0,0,0,0,0,0,0,0,0,0,0,0,0,0,0,0,0,0,0,0,0,0,0,0,0,0,0,0,0,0,0,0,0,0,0,0,0,0,0,0,0,0,0,0,0,0,0,0,-1.7321,-1.7321,0,-1.7335,-1.7335,-1.7335,-1.73,-1.7299,-1.7298,-1.7297,-1.7312,-1.7313,-1.7315,0,0,0,0,0,0,0,0,0,0,0,0,0,-1.7266,-1.7267,-1.7321,-1.7321,-1.7321,-1.7335,-1.7335,-1.7335,-1.73,-1.7299,-1.7298,-1.7297,-1.7312,-1.7313,-1.7315,0,0,0,0,0,0,0,0,0,0,0,0,0,-1.7286,-1.7268,-1.7321,-1.7306,-1.7304,-1.7335,-1.7335,-1.7335,-1.7301,-1.7299,-1.7297,-1.7296,-1.7311,-1.7313,-1.7315,-1.7361,0,0,-1.7322,-1.7323,0,0,0,0,0,0,0,0,-1.7285,-1.7288,-1.7308,-1.7307,-1.7305,-1.7314,-1.7321,-1.7344,-1.7301,-1.7302,-1.7297,-1.7295,-1.7314,-1.7316,-1.7322,-1.7362,-1.7363,-1.7322,-1.7323,-1.7324,-1.7325,0,0,0,0,0,0,0,-1.7283,-1.7287,-1.7326,-1.7308,-1.7307,-1.7298,-1.7299,-1.7325,-1.7317,-1.7302,-1.7299,-1.7301,-1.7313,-1.732,-1.7322,-1.7363,-1.7322,-1.7324,-1.7325,-1.7326,-1.7442,-1.7443,0,0,0,0,0,0,-1.7284,-1.7286,-1.7326,-1.7327,-1.7291,-1.7301,-1.7302,-1.7313,-1.7317,-1.7316,-1.7303,-1.73,-1.7317,-1.732,-1.7323,-1.7377,-1.7324,-1.7326,-1.7327,-1.744,-1.7442,-1.7444,0,0,0,0,0,0,-1.7283,-1.7288,-1.7325,-1.7306,-1.731,-1.7303,-1.7316,-1.7314,-1.7321,-1.7318,-1.7316,-1.7311,-1.7316,-1.732,-1.7352,-1.7377,-1.7327,-1.7329,-1.7438,-1.7441,-1.7443,-1.7486,0,0,0,0,0,0,-1.7281,-1.7288,-1.7305,-1.7306,-1.7311,-1.7354,-1.7318,-1.7316,-1.7325,-1.7321,-1.7325,-1.7324,-1.7315,-1.7349,-1.7354,-1.7379,-1.7331,-1.7435,-1.7439,-1.7442,-1.7482,-1.749,-1.7496,0,0,0,0,0,-1.728,-1.7316,-1.7306,-1.7311,-1.7332,-1.7356,-1.7358,-1.7347,-1.7327,-1.7344,-1.7342,-1.7324,-1.7374,-1.7353,-1.7358,-1.7384,-1.7434,-1.7438,-1.7442,-1.7479,-1.7488,-1.7496,0,0,0,0,0,0,-1.7318,-1.7316,-1.7304,-1.7343,-1.735,-1.735,-1.7371,-1.7357,-1.737,-1.7366,-1.7351,-1.7352,-1.7388,-1.7389,-1.7366,-1.7429,-1.74,-1.7406,-1.7427,-1.7435,-1.7442,-1.7441,-1.7333,0,0,0,0,0,-1.7331,-1.7349,-1.7347,-1.7381,-1.7385,-1.7378,-1.7387,-1.7378,-1.7385,-1.7387,-1.7388,-1.7395,-1.7412,-1.7424,-1.7439,-1.7482,-1.7483,-1.7503,-1.751,-1.7516,-1.752,-1.7543,-1.7552,-1.7457,-1.7457,-1.7457,0,0,-1.7357,-1.7359,-1.7372,-1.7389,-1.7393,-1.7413,-1.738,-1.7403,-1.7418,-1.7391,-1.7421,-1.7422,-1.7429,-1.7467,-1.7484,-1.747,-1.7547,-1.7521,-1.7525,-1.7527,-1.7549,-1.7558,-1.7566,-1.746,-1.746,-1.7459,0,0,-1.7416,-1.7419,-1.7448,-1.7453,-1.746,-1.7455,-1.7462,-1.7464,-1.7463,-1.7494,-1.7474,-1.7492,-1.7522,-1.7528,-1.7535,-1.7597,-1.7581,-1.7603,-1.7639,-1.7662,-1.7669,-1.7676,-1.7698,-1.7706,-1.7607,-1.7608,-1.7608,0,-1.7449,-1.7478,-1.7465,-1.7489,-1.7497,-1.7474,-1.7503,-1.7508,-1.752,-1.7527,-1.751,-1.7548,-1.7551,-1.759,-1.7605,-1.7612,-1.762,-1.7602,-1.7669,-1.7675,-1.7681,-1.7703,-1.7711,-1.761,-1.761,-1.761,-1.7609,0,-1.7518,-1.7538,-1.7561,-1.7572,-1.7583,-1.761,-1.7601,-1.7614,-1.7604,-1.7601,-1.7632,-1.7636,-1.7652,-1.766,-1.7651,-1.7698,-1.7689,-1.7671,-1.7642,-1.7693,-1.7713,-1.7721,-1.7614,-1.7613,-1.7612,-1.7611,0,0,-1.7601,-1.7605,-1.7614,-1.7619,-1.7625,-1.764,-1.7666,-1.7682,-1.7693,-1.7702,-1.7724,-1.775,-1.7733,-1.7741,-1.7732,-1.7752,-1.7802,-1.7732,-1.7732,-1.7745,-1.7855,-1.7868,-1.7878,-1.7791,-1.7793,-1.7794,-1.7854,0,-1.7659,-1.7703,-1.7692,-1.7736,-1.7755,-1.7733,-1.7756,-1.7762,-1.776,-1.7776,-1.7774,-1.7793,-1.777,-1.7774,-1.7793,-1.7792,-1.7824,-1.7787,-1.7812,-1.7813,-1.781,-1.7888,-1.7902,-1.7959,-1.7862,-1.7863,-1.7864,0,-1.7733,-1.7745,-1.779,-1.7793,-1.7801,-1.7821,-1.7835,-1.785,-1.7857,-1.7854,-1.7864,-1.7851,-1.7877,-1.7848,-1.7884,-1.786,-1.7869,-1.787,-1.7872,-1.7874,-1.7841,-1.7892,-1.7977,-1.7985,-1.7876,-1.7875,-1.7874,0,-1.7789,-1.7816,-1.7847,-1.7852,-1.7856,-1.7871,-1.7874,-1.7879,-1.7889,-1.7901,-1.7908,-1.7923,-1.7931,-1.7944,-1.7936,-1.7915,-1.7973,-1.7943,-1.7972,-1.7972,-1.7985,-1.7984,-1.8072,-1.7991,-1.7991,-1.7991,-1.7991,0,-1.7856,-1.7884,-1.7872,-1.7891,-1.7923,-1.7911,-1.7943,-1.7943,-1.7948,-1.7967,-1.7949,-1.7967,-1.7955,-1.7973,-1.7967,-1.7998,-1.8002,-1.8001,-1.7999,-1.8002,-1.8003,-1.8008,-1.8004,-1.7993,-1.7993,-1.7992,-1.7992,0,-1.7924,-1.7917,-1.7949,-1.795,-1.7951,-1.7975,-1.7976,-1.7994,-1.7991,-1.8015,-1.802,-1.8015,-1.8035,-1.8028,-1.805,-1.8045,-1.8085,-1.8078,-1.8083,-1.8081,-1.811,-1.8107,-1.8205,-1.8217,-1.8128,-1.8129,-1.8129,0,-1.7967,-1.7988,-1.7992,-1.8003,-1.8007,-1.8025,-1.8035,-1.8024,-1.8035,-1.8045,-1.8062,-1.808,-1.8094,-1.8127,-1.8126,-1.8142,-1.8135,-1.8168,-1.8138,-1.8141,-1.8136,-1.8135,-1.8137,-1.8175,-1.8176,-1.8176,-1.8177,0,-1.8043,-1.8039,-1.8054,-1.8068,-1.8081,-1.8091,-1.81,-1.8111,-1.81,-1.8114,-1.8134,-1.8145,-1.8166,-1.8185,-1.82,-1.8203,-1.8189,-1.8187,-1.8194,-1.8198,-1.82,-1.82,-1.8099,-1.8185,-1.8184,-1.8183,-1.8183,-1.8183,-1.81,-1.8119,-1.8124,-1.8141,-1.8147,-1.8156,-1.8173,-1.8172,-1.8188,-1.8204,-1.8197,-1.822,-1.8227,-1.8245,-1.8251,-1.8269,-1.8256,-1.8267,-1.827,-1.8273,-1.8277,-1.8197,-1.8272,-1.8271,-1.8271,-1.8271,-1.8271,0,-1.8176,-1.8179,-1.8195,-1.8208,-1.8222,-1.8207,-1.8216,-1.8229,-1.8249,-1.8257,-1.8271,-1.8294,-1.8312,-1.8312,-1.8329,-1.8344,-1.8338,-1.8349,-1.8348,-1.8349,-1.8287,-1.8279,-1.8353,-1.8353,-1.8353,-1.8353,-1.8353,-1.8353,-1.8218,-1.8248,-1.8244,-1.8277,-1.8279,-1.8301,-1.8308,-1.8316,-1.8322,-1.8349,-1.8363,-1.8363,-1.8368,-1.8385,-1.8401,-1.8401,-1.8408,-1.8421,-1.8419,-1.8361,-1.8353,-1.8345,-1.8337,-1.8423,-1.8423,-1.8479,-1.8479,-1.848]},{"header":{"parameterUnit":"m.s-1","parameterCategory":1,"la1":30.2991,"la2":30.254,"lo1":-89.0895,"lo2":-89.0444,"dy":0.0017,"dx":0.0017,"nx":28,"ny":28,"refTime":"2023-08-24T21:00:00:Z","depth":0,"parameterNumber":3,"parameterNumberName":"V-component_of_WINDS"},"data":[0,0,0,0,0,0,0,0,0,0,0,0,0,0,0,0,0,0,0,0,0,0,0,0,0,0,0,0,0,0,0,0,0,0,0,0,0,0,0,0,0,0,0,0,0,0,0,0,0,0,0,0,0,0,0,0,0,0,2.8182,2.8182,0,2.8167,2.8167,2.8166,2.8134,2.8133,2.8133,2.8132,2.8117,2.8117,2.8117,0,0,0,0,0,0,0,0,0,0,0,0,0,2.8184,2.8184,2.8182,2.8182,2.8182,2.8167,2.8167,2.8166,2.8134,2.8133,2.8133,2.8132,2.8117,2.8117,2.8117,0,0,0,0,0,0,0,0,0,0,0,0,0,2.8177,2.8184,2.8182,2.8164,2.8162,2.8167,2.8167,2.8166,2.8134,2.8133,2.8132,2.8131,2.8117,2.8117,2.8117,2.8139,0,0,2.8118,2.8118,0,0,0,0,0,0,0,0,2.8178,2.8177,2.8167,2.8165,2.8163,2.8151,2.8162,2.8157,2.8135,2.8145,2.8132,2.8131,2.8129,2.8128,2.8128,2.8138,2.8137,2.8118,2.8118,2.8119,2.8119,0,0,0,0,0,0,0,2.8178,2.8178,2.8176,2.8167,2.8165,2.8157,2.8155,2.8161,2.8143,2.8144,2.8142,2.814,2.8128,2.8127,2.8127,2.8137,2.8118,2.8118,2.8119,2.8119,2.8164,2.8165,0,0,0,0,0,0,2.8181,2.8179,2.8177,2.8176,2.8168,2.8157,2.8155,2.8156,2.8143,2.814,2.8141,2.8139,2.8127,2.8127,2.8126,2.815,2.8119,2.8119,2.8119,2.8163,2.8164,2.8165,0,0,0,0,0,0,2.8182,2.8182,2.8177,2.8176,2.8175,2.8158,2.816,2.8156,2.8156,2.814,2.8137,2.8144,2.8127,2.8126,2.8136,2.8149,2.8119,2.8119,2.8161,2.8163,2.8164,2.8198,0,0,0,0,0,0,2.8182,2.8182,2.819,2.8177,2.8175,2.8187,2.8161,2.8157,2.8156,2.8153,2.8142,2.8139,2.8126,2.8135,2.8136,2.8149,2.8119,2.816,2.8162,2.8164,2.8195,2.82,2.8204,0,0,0,0,0,2.8182,2.82,2.819,2.819,2.8185,2.8188,2.8187,2.8171,2.8158,2.8165,2.8155,2.814,2.8148,2.8137,2.8137,2.815,2.8159,2.8162,2.8164,2.8193,2.8199,2.8204,0,0,0,0,0,0,2.8215,2.8198,2.8187,2.8201,2.8196,2.8182,2.8191,2.8178,2.8176,2.8174,2.8154,2.8152,2.8164,2.8158,2.8146,2.817,2.8151,2.8153,2.8173,2.8179,2.8183,2.8184,2.812,0,0,0,0,0,2.8224,2.8228,2.8212,2.8227,2.8224,2.8209,2.8209,2.8197,2.8191,2.8189,2.818,2.8175,2.8176,2.8177,2.8177,2.8195,2.8191,2.8204,2.8208,2.8212,2.8214,2.8222,2.8227,2.8172,2.8172,2.8172,0,0,2.8243,2.8234,2.8237,2.8233,2.8228,2.8232,2.8207,2.8212,2.8215,2.819,2.8198,2.8191,2.8184,2.8198,2.8203,2.8193,2.8229,2.8215,2.8218,2.8218,2.8225,2.823,2.8235,2.8174,2.8174,2.8173,0,0,2.8278,2.8272,2.8283,2.8278,2.827,2.8259,2.8262,2.825,2.8244,2.8252,2.8233,2.8236,2.8239,2.8235,2.8233,2.8267,2.8252,2.8268,2.8291,2.8299,2.8303,2.8307,2.8318,2.8323,2.827,2.827,2.827,0,2.8302,2.8307,2.829,2.8296,2.8295,2.8272,2.8283,2.8279,2.8272,2.8271,2.826,2.8263,2.8257,2.8268,2.8277,2.8276,2.8278,2.8268,2.8304,2.8307,2.8311,2.8321,2.8326,2.8272,2.8272,2.8271,2.8271,0,2.8337,2.8341,2.835,2.8344,2.8343,2.8352,2.8336,2.8338,2.8326,2.8317,2.8325,2.8317,2.8315,2.8317,2.8306,2.8327,2.8321,2.8307,2.8288,2.8318,2.8328,2.8332,2.8274,2.8274,2.8273,2.8273,0,0,2.8392,2.8376,2.838,2.8376,2.8366,2.8368,2.8376,2.8374,2.8376,2.8372,2.8377,2.838,2.8367,2.8365,2.8353,2.836,2.8387,2.8346,2.8345,2.8353,2.8409,2.8419,2.8424,2.8377,2.8378,2.8379,2.841,0,2.8425,2.8437,2.8421,2.8436,2.844,2.8418,2.8425,2.8419,2.841,2.8412,2.8402,2.8404,2.8388,2.8386,2.8392,2.8382,2.8398,2.838,2.8382,2.8382,2.8384,2.8429,2.844,2.847,2.8413,2.8414,2.8415,0,2.8464,2.8462,2.8477,2.8465,2.8466,2.8472,2.8469,2.8471,2.8464,2.8457,2.8455,2.8441,2.8447,2.8429,2.8437,2.8425,2.8425,2.8421,2.8421,2.842,2.84,2.8429,2.8479,2.8483,2.842,2.842,2.842,0,2.8503,2.8503,2.8512,2.851,2.8497,2.8501,2.8496,2.8488,2.8488,2.8485,2.8485,2.8483,2.8482,2.8481,2.8466,2.8454,2.8476,2.8457,2.847,2.8471,2.8476,2.8475,2.8525,2.8477,2.8477,2.8477,2.8477,0,2.854,2.855,2.8529,2.8534,2.8545,2.8528,2.8538,2.8531,2.8524,2.8528,2.851,2.8513,2.8494,2.8496,2.8485,2.8494,2.8493,2.8488,2.8485,2.8489,2.849,2.8488,2.8486,2.8478,2.8478,2.8477,2.8477,0,2.8584,2.857,2.8579,2.8566,2.8562,2.8571,2.8559,2.8564,2.8554,2.8559,2.8559,2.8544,2.8545,2.8531,2.8529,2.8522,2.8535,2.8529,2.8537,2.8535,2.8549,2.8548,2.86,2.8605,2.8554,2.8554,2.8555,0,2.8609,2.8616,2.8603,2.8604,2.86,2.8602,2.8601,2.8585,2.8585,2.8577,2.8583,2.8582,2.8581,2.8584,2.8573,2.8571,2.8564,2.8583,2.8564,2.8568,2.8564,2.8563,2.8564,2.8586,2.8587,2.8587,2.8588,0,2.8654,2.8646,2.8646,2.8644,2.8643,2.8641,2.8637,2.8639,2.862,2.8621,2.8622,2.8621,2.8619,2.8619,2.8616,2.861,2.8596,2.8594,2.8597,2.8601,2.8606,2.8603,2.8547,2.8593,2.8592,2.8592,2.8592,2.8591,2.8688,2.8693,2.8685,2.8686,2.8681,2.8678,2.8681,2.8672,2.8672,2.8669,2.8659,2.8662,2.8654,2.8648,2.8644,2.8646,2.8637,2.8641,2.8642,2.8644,2.8646,2.8606,2.8645,2.8645,2.8645,2.8645,2.8645,0,2.8732,2.8725,2.8726,2.8721,2.8721,2.8708,2.8702,2.8704,2.8706,2.87,2.8699,2.87,2.87,2.8689,2.8687,2.869,2.8684,2.869,2.869,2.8688,2.8654,2.8652,2.8696,2.8696,2.8696,2.8696,2.8696,2.8696,2.8754,2.8762,2.8754,2.8759,2.8753,2.8755,2.8753,2.875,2.8745,2.8747,2.8746,2.8739,2.8731,2.8729,2.8728,2.8724,2.8724,2.8733,2.8728,2.8696,2.8691,2.8686,2.8683,2.8733,2.8733,2.8761,2.8762,2.8762]}]]